Location: *
(41.7492°S, 135.4150°W)
Time: 23:01:25
(UTC+00:00)

METEOR M2 - Pass Details

Date: 03 July 2022
Orbit: 818 x 827 km, 98.4° (Epoch: 17 August)

Event Time Altitude Azimuth Distance (km) Brightness Sun altitude
Exits shadow 03:51:29 55° 116° (ESE) 998 ? -23.3°
Maximum altitude 03:52:15 60° 79° (E) 943 ? -23.4°
Drops below altitude 10° 03:57:34 10° 359° (N) 2,422 ? -24.4°
Sets 03:59:56 0° 355° (N) 3,348 ? -24.9°
